RH
85 76 61 38 55 63 66 46 30 20 21 16 15 14 16 20 21 32 40 47 50 56 77 79 83 82 80 79 79 80 81 77 72 70 69 69 68 66 66 67 67 63 61 59 58 57 56 58 61
68 49 34 50 68 81 66 37 28 18 15 15 14 16 18 29 31 31 47 56 47 62 78 81 84 82 81 81 83 84 82 77 74 74 72 74 72 70 68 68 69 68 65 63 60 58 57 56 56
36 25 45 65 72 74 64 34 23 19 13 14 15 15 19 25 31 29 38 58 55 66 76 80 84 83 82 81 84 85 85 81 77 76 75 74 72 72 72 72 72 70 68 67 65 62 60 58 60
38 50 53 63 60 45 39 29 19 16 12 13 16 21 22 23 28 31 53 59 59 65 69 78 85 85 84 81 81 84 83 81 77 76 74 73 70 74 76 70 70 69 67 66 67 65 63 64 64
49 56 66 67 54 39 25 22 15 14 15 13 14 28 31 27 30 33 50 55 65 74 78 85 87 87 86 81 79 83 85 83 79 77 75 71 73 74 71 69 68 67 66 67 68 68 68 70 67
55 47 56 51 37 27 22 18 20 16 14 13 25 26 26 27 32 33 31 42 62 80 93 91 85 87 88 86 83 83 83 81 79 77 76 76 75 74 72 71 70 68 66 66 67 69 72 72 73
56 59 64 44 37 29 24 19 20 16 18 13 19 30 35 31 28 30 30 51 64 70 85 92 91 88 85 82 84 84 82 81 74 69 69 69 70 70 71 70 70 69 68 68 71 72 74 73 72
45 48 52 42 38 32 22 17 16 19 16 13 14 34 35 29 28 31 33 39 58 69 72 89 93 89 92 93 80 79 77 69 70 71 71 69 70 71 71 72 72 70 69 68 72 72 73 74 74
35 54 54 45 34 29 20 23 14 13 15 14 14 24 24 26 30 33 36 35 39 48 72 81 86 92 93 92 81 77 69 68 72 73 68 76 90 87 80 78 73 72 74 70 69 71 74 73 71
44 58 44 33 29 28 22 23 16 14 15 16 19 27 29 26 28 30 33 35 36 39 47 56 68 76 86 76 91 93 84 89 90 87 87 89 90 93 85 77 70 66 71 74 71 71 73 72 81
40 41 32 31 25 22 21 20 15 14 15 14 18 27 28 31 32 31 32 32 33 40 51 60 68 74 76 87 97 96 92 93 90 86 89 94 93 96 95 96 95 93 81 94 86 86 86 83 88
44 32 30 28 23 21 20 17 17 14 14 13 16 24 29 31 32 33 33 32 39 44 50 58 72 76 83 91 93 93 95 93 92 91 92 97 98 97 97 98 95 96 97 95 96 98 94 90 86
40 32 27 24 22 20 18 19 16 16 15 15 17 23 27 29 31 32 30 37 44 52 64 71 76 86 92 91 94 96 96 96 94 95 95 97 98 97 96 95 96 96 97 97 98 98 96 94 89
32 31 28 25 24 21 21 20 19 16 16 16 17 24 24 28 28 34 40 43 47 52 67 73 76 88 90 92 92 96 95 95 97 97 96 91 98 98 94 97 97 97 96 97 97 98 98 97 93
22 29 27 25 21 19 18 21 20 18 17 18 17 19 22 24 29 31 35 38 43 50 64 71 79 84 88 89 90 93 95 96 98 98 94 90 95 96 96 98 98 98 97 94 97 96 97 98 96
24 26 30 22 19 17 22 25 18 18 19 21 19 17 20 25 28 32 38 43 49 57 63 69 62 80 84 88 90 96 97 97 98 98 97 92 94 95 96 98 98 97 97 97 97 98 98 98 97
28 30 27 25 21 20 22 23 18 17 19 20 21 24 23 22 34 41 40 47 49 60 66 68 70 77 80 86 92 93 94 96 98 98 98 94 92 89 96 98 98 95 97 98 97 97 95 96 97
26 30 29 26 20 22 23 23 18 17 19 19 22 25 28 28 33 42 54 48 55 65 69 74 76 75 82 88 90 96 96 97 98 98 98 94 96 90 95 98 97 96 98 98 98 94 96 96 97
26 28 30 22 18 25 25 23 20 21 24 20 23 25 30 34 47 51 57 55 59 69 75 75 76 81 87 86 91 94 95 96 97 98 96 94 95 90 94 98 97 97 97 97 96 96 94 97 98
24 28 26 22 18 23 23 24 20 23 26 24 24 27 32 50 52 58 63 60 63 73 75 79 75 81 85 88 94 94 95 96 96 97 95 92 94 94 95 96 96 96 98 96 96 95 98 97 99
24 25 28 26 22 21 26 28 29 25 29 26 25 30 43 46 51 58 60 64 67 72 78 79 79 81 78 82 93 94 94 95 96 98 98 92 88 90 93 94 96 96 97 97 96 96 93 97 98
27 20 21 26 31 38 26 41 32 24 23 22 22 28 43 41 46 53 60 68 65 64 70 76 79 75 75 81 86 86 94 94 96 97 97 96 89 89 92 92 94 95 97 96 96 96 94 95 97
24 20 23 25 30 32 26 34 28 28 24 22 24 34 46 38 46 55 60 58 61 67 73 78 74 78 77 78 83 93 90 96 97 97 95 94 94 90 89 92 92 93 96 94 95 95 95 96 98
18 24 25 26 31 40 28 33 28 30 24 24 28 36 41 50 55 63 62 60 63 67 75 76 70 76 78 78 82 87 88 93 96 96 97 98 98 97 92 91 92 91 94 95 94 95 94 95 96
22 30 44 62 52 48 31 38 35 30 28 21 20 34 47 52 62 64 64 64 66 70 74 74 73 75 75 74 84 84 91 92 92 94 97 97 98 98 95 93 93 92 91 94 95 95 94 94 96
15 20 38 51 54 40 28 33 24 23 21 22 25 39 50 59 60 60 64 61 64 66 71 66 71 65 68 75 85 84 90 96 95 95 98 98 98 97 94 95 93 91 90 95 96 98 99 97 99
16 23 16 34 41 38 36 30 29 24 27 38 46 46 54 58 63 66 62 61 59 68 70 67 74 66 64 73 84 88 92 92 94 94 97 98 97 96 94 93 92 93 93 95 98 99 99 99 99
13 17 26 39 43 50 40 35 37 28 33 44 49 53 58 60 63 61 57 61 58 65 62 62 74 63 68 70 74 82 78 92 94 95 96 95 96 94 94 94 95 95 95 97 98 99 99 98 99
15 19 29 30 39 47 51 37 33 22 28 43 43 47 53 56 57 58 56 60 58 61 57 63 72 64 67 68 72 77 86 90 95 96 94 95 94 94 95 95 95 95 96 98 98 99 97 92 93
12 15 28 28 38 36 40 34 30 29 32 35 41 42 48 51 55 55 57 64 61 59 59 68 66 63 59 60 61 69 82 89 92 92 92 93 93 93 94 95 95 95 96 97 97 98 90 86 91
Wind_Speed
6 5 1 3 3 4 4 8 5 7 1 4 4 8 7 1 3 4 3 14 12 16 14 17 20 20 20 19 17 16 14 14 12 11 11 11 11 10 10 9 9 8 8 10 11 12 11 10 10
5 4 2 1 2 1 6 8 5 5 5 4 5 7 5 1 1 7 7 9 17 14 12 13 20 20 19 17 15 14 14 13 12 13 12 11 12 13 12 11 10 9 10 11 12 12 13 12 11
6 2 3 4 4 5 5 8 10 4 8 6 3 4 7 7 2 14 5 12 12 12 12 13 20 18 16 14 12 11 12 12 12 12 12 12 12 14 14 13 13 13 13 13 12 12 14 13 12
2 3 3 2 9 9 7 12 9 2 5 4 3 6 3 4 10 8 14 14 14 12 12 13 18 16 14 13 12 12 13 11 12 12 12 12 13 13 12 14 15 15 15 15 15 14 14 13 13
2 3 2 4 8 7 10 9 5 4 3 3 2 2 1 3 6 13 13 13 13 9 8 11 18 16 15 14 13 13 11 11 11 12 12 12 13 13 14 14 15 16 17 17 16 16 14 13 11
2 2 1 5 6 5 6 9 3 2 4 3 6 8 7 4 10 10 11 10 12 13 9 11 17 17 16 15 13 11 10 9 8 5 5 8 10 12 15 16 16 17 18 18 19 17 16 13 11
5 3 5 6 13 11 2 7 5 7 3 5 11 7 3 5 9 9 9 12 12 12 12 9 11 14 17 15 14 13 12 10 8 6 8 10 11 14 16 17 18 19 20 20 18 17 17 15 13
5 4 5 6 4 11 5 4 6 3 8 1 7 7 5 9 10 7 8 9 10 10 11 10 8 7 7 7 14 13 11 10 10 9 9 9 9 11 12 14 15 18 19 20 19 18 17 16 14
5 2 8 8 7 11 17 2 6 5 3 3 5 8 9 14 11 8 5 5 6 6 8 7 7 6 7 6 7 10 12 11 11 10 9 7 4 6 8 10 14 15 17 19 18 17 17 18 15
7 6 13 15 9 10 16 5 7 5 6 5 4 4 7 15 13 13 8 9 6 7 5 6 7 7 7 5 5 5 5 4 5 5 5 3 5 5 6 9 12 12 11 17 18 16 17 16 4
8 17 19 19 16 16 18 17 8 6 6 8 6 6 10 8 8 11 9 9 10 7 5 8 8 7 8 6 4 2 1 3 3 5 5 4 3 3 3 3 4 3 6 3 7 7 5 6 4
6 14 21 23 21 18 19 18 17 8 10 9 6 17 10 10 12 11 10 7 10 9 9 8 8 7 6 4 4 4 3 3 3 4 5 4 3 4 4 3 4 4 3 3 3 3 5 6 6
13 25 20 18 17 20 20 17 16 9 11 9 3 13 17 15 12 9 9 8 9 9 8 9 9 7 6 5 3 3 4 4 5 4 5 4 4 4 3 3 3 3 3 3 4 4 4 5 5
10 17 20 18 20 22 22 22 7 10 9 10 11 16 14 14 16 6 9 11 10 11 10 9 9 8 7 5 5 5 4 5 4 4 5 6 5 4 4 4 4 4 3 4 4 4 4 4 4
14 21 19 19 13 17 15 18 13 12 9 9 12 12 15 18 11 18 17 17 15 9 10 9 9 8 8 7 6 4 4 4 4 4 6 5 5 5 5 4 4 5 3 4 4 4 3 4 3
7 5 9 10 14 21 7 24 16 13 10 12 12 10 11 11 18 12 14 12 10 10 11 9 7 8 7 5 5 4 4 4 4 4 4 6 6 6 5 4 4 4 3 4 3 4 3 4 4
5 13 17 13 11 12 9 22 19 12 13 15 11 10 11 13 5 8 14 14 13 11 10 9 8 8 7 5 3 4 6 4 4 4 4 5 5 5 5 4 4 4 3 4 3 2 3 3 4
12 11 5 17 21 8 14 17 20 20 15 18 11 10 10 8 12 12 10 11 10 9 9 8 6 7 6 2 1 2 3 3 3 4 4 5 5 5 4 3 5 3 3 3 2 3 2 2 3
8 6 9 20 24 5 12 15 23 13 10 13 10 10 10 9 6 8 10 10 9 8 9 8 7 6 3 1 1 1 3 2 3 3 6 6 5 5 5 4 4 3 4 4 4 3 4 3 2
12 14 18 21 23 6 17 18 22 8 7 10 13 11 7 7 10 11 11 8 8 9 8 8 7 6 4 2 2 2 2 3 3 1 3 4 5 6 5 5 4 4 3 4 5 4 2 2 4
16 17 17 18 20 15 10 15 10 5 3 3 7 4 7 16 16 14 13 10 9 9 9 8 8 7 4 3 2 1 2 2 1 1 3 2 2 5 5 4 4 4 3 4 4 5 5 3 1
20 16 19 15 12 9 6 8 6 6 6 5 8 7 10 14 12 14 13 10 10 8 8 8 7 7 4 5 2 3 2 2 1 1 2 0 1 2 3 4 4 4 3 5 5 5 4 4 4
19 17 18 21 14 8 22 4 9 6 6 9 9 5 11 17 19 17 14 13 7 8 8 7 8 6 6 5 3 3 1 1 1 1 2 0 1 0 3 4 4 3 1 3 5 5 5 3 4
22 10 12 12 8 12 15 7 14 6 9 6 2 6 10 9 9 9 11 10 8 7 7 7 7 5 5 4 4 5 4 4 4 1 1 1 1 1 3 4 4 2 3 4 3 4 5 3 4
13 10 5 3 4 12 10 6 12 7 8 8 9 8 8 9 12 15 14 9 8 8 8 7 7 5 5 4 6 6 6 6 6 2 1 1 2 2 3 3 3 2 2 4 4 4 4 5 3
20 14 9 8 6 4 7 6 12 9 5 7 7 10 10 9 11 13 12 10 9 9 9 8 7 5 4 5 6 4 6 4 4 3 2 2 2 3 3 4 3 3 3 5 5 4 3 4 4
14 15 20 4 4 2 4 7 10 7 6 6 10 12 11 11 12 14 11 9 9 8 9 9 8 6 4 6 6 4 5 6 5 4 4 3 3 2 4 4 3 2 3 5 6 4 5 6 5
26 6 7 2 10 6 4 4 6 0 7 6 8 10 8 8 11 12 11 9 7 8 7 7 7 8 6 6 6 5 5 5 5 4 5 5 3 2 4 4 4 4 4 5 6 5 5 8 5
10 10 6 5 7 10 3 9 8 13 11 16 13 13 14 14 15 13 10 9 9 8 8 7 7 7 6 5 4 5 5 5 5 4 4 5 4 4 4 5 5 5 6 6 7 6 6 9 8
14 15 10 9 5 2 7 11 4 11 15 17 12 13 11 12 13 12 11 9 9 9 7 8 7 7 7 5 4 5 6 5 6 5 5 4 5 4 5 5 5 6 6 6 7 8 10 10 8
Wind_Direction
151 141 147 50 38 61 265 259 236 290 287 230 198 120 150 112 176 221 234 178 154 156 168 174 181 183 184 187 186 187 190 191 196 204 213 219 225 231 227 218 219 226 234 243 249 250 246 253 257
148 143 34 55 95 85 260 243 301 238 239 209 123 113 86 223 151 136 128 181 157 155 162 175 185 186 188 189 188 190 192 196 203 213 218 225 229 232 237 234 233 234 238 240 243 250 252 245 251
169 217 78 162 185 206 220 254 232 263 233 208 128 89 148 176 125 158 162 154 136 154 168 180 183 184 187 188 189 193 199 206 215 227 225 228 234 238 238 239 243 244 240 237 241 247 248 249 251
182 30 323 180 236 264 245 267 267 276 349 322 109 76 52 284 161 168 145 150 148 164 171 177 176 179 180 185 192 199 212 219 225 232 232 233 242 246 244 242 242 245 246 249 241 240 248 245 245
25 72 264 262 253 258 284 268 232 348 349 38 88 176 43 281 133 136 147 156 154 155 158 167 172 173 177 186 194 207 223 226 231 238 241 244 248 248 251 253 252 248 247 247 242 242 236 238 233
17 92 311 254 249 264 284 253 227 225 256 160 85 139 192 151 138 171 150 150 154 152 151 165 169 173 178 185 188 187 175 172 176 201 234 254 258 259 254 252 254 254 251 243 239 235 232 227 221
140 101 237 265 285 301 203 320 281 243 221 233 154 138 257 210 189 172 133 136 143 151 155 164 170 178 179 179 176 174 179 182 186 208 235 250 258 261 259 257 256 255 254 251 247 240 230 229 215
155 121 271 245 247 278 271 338 302 345 273 169 168 172 200 218 181 128 132 146 157 160 166 173 173 169 160 160 173 180 179 184 191 210 225 238 242 254 264 261 257 255 253 249 243 242 234 226 215
142 150 254 239 227 252 284 3 293 270 281 267 222 154 214 154 134 127 138 163 149 173 176 173 150 146 146 161 175 181 189 199 205 215 237 228 219 246 267 267 262 254 250 251 244 240 227 222 218
162 187 236 236 255 273 284 266 282 303 318 281 296 355 107 139 150 162 171 188 191 185 164 150 145 154 160 157 168 172 209 224 200 205 210 211 225 235 243 264 277 272 263 249 245 238 218 215 191
204 226 242 266 260 263 268 283 270 276 293 266 249 194 158 151 160 171 191 193 197 166 138 151 147 160 140 140 172 183 205 211 217 222 228 221 227 254 268 288 299 291 273 278 237 218 202 201 172
269 243 242 253 262 267 266 275 266 227 241 250 275 186 165 161 180 183 198 182 157 153 150 152 146 134 145 137 158 182 170 182 215 230 238 216 225 236 250 242 264 261 247 238 214 193 188 184 180
236 242 247 255 263 265 268 258 252 239 258 269 149 168 183 185 188 196 178 163 147 143 154 159 155 147 160 146 180 186 206 213 225 229 219 208 215 228 222 250 250 245 228 217 211 200 195 198 198
240 248 254 259 262 266 264 269 229 247 246 269 168 199 192 184 194 157 168 164 163 154 160 157 155 162 151 175 196 213 216 236 237 241 228 234 209 208 220 234 237 244 208 217 202 200 197 205 208
249 257 264 260 249 258 269 269 247 249 250 246 204 190 196 202 180 187 175 168 163 162 154 162 161 160 163 194 209 224 232 231 236 238 227 225 198 202 213 224 236 238 220 218 212 210 194 209 217
298 272 257 246 259 260 190 269 273 254 227 230 220 218 199 202 201 183 173 163 156 147 160 165 157 162 176 202 230 237 237 233 238 228 220 223 210 210 210 217 232 234 215 202 195 178 200 215 211
229 257 260 279 243 261 205 266 267 270 223 228 225 218 222 217 189 170 177 162 156 156 152 151 141 160 177 207 221 248 247 243 241 220 211 222 222 222 212 221 232 219 212 204 195 164 164 189 225
219 237 223 255 258 255 268 264 269 262 231 222 214 226 227 207 205 172 151 145 146 146 139 137 150 152 161 186 296 288 276 262 230 216 211 217 224 223 212 224 229 189 191 188 162 157 185 186 218
241 236 246 261 268 277 266 269 270 255 238 217 218 233 231 200 146 140 144 144 139 130 128 148 152 163 139 144 283 292 248 263 253 198 215 224 227 228 210 200 220 186 183 194 171 156 179 233 165
229 240 249 272 270 260 274 281 287 251 224 212 212 234 218 137 144 140 152 154 144 145 152 157 172 159 172 150 205 191 228 262 239 242 252 239 221 213 199 202 214 189 164 180 174 148 118 180 185
226 229 242 243 276 279 276 279 266 292 226 240 275 263 146 166 158 159 165 159 142 149 165 169 176 166 163 149 114 43 15 302 356 273 260 244 200 171 184 198 205 178 176 190 175 162 151 153 86
234 226 241 251 255 257 137 280 277 237 259 246 261 212 182 173 163 160 160 156 155 169 166 163 167 158 154 155 132 173 191 254 256 235 257 209 139 169 163 173 175 173 180 189 183 173 156 142 158
227 222 233 244 247 260 281 297 266 271 268 266 287 219 172 177 167 163 162 155 164 155 160 164 151 153 165 178 137 144 194 257 106 76 106 63 347 139 164 154 175 154 161 172 179 158 150 149 136
232 238 238 256 241 253 242 214 267 220 225 251 228 195 178 154 138 125 139 149 150 149 144 148 149 160 189 187 159 141 132 124 101 119 108 300 57 66 118 122 140 148 142 156 190 148 138 136 127
211 199 250 295 196 239 209 182 238 227 229 222 193 198 158 147 142 146 153 151 151 152 153 147 148 175 211 139 162 148 149 122 114 150 133 83 83 76 118 101 105 130 116 133 166 152 137 155 170
220 209 200 184 219 239 202 228 260 225 253 208 153 157 137 139 146 151 156 160 157 156 157 152 161 190 193 151 174 169 145 126 132 150 136 95 105 123 128 107 96 52 83 86 97 107 107 109 106
221 211 223 198 315 129 214 283 321 267 149 135 132 144 149 152 151 149 161 159 153 155 166 163 171 199 184 170 165 176 156 139 151 128 109 114 129 133 122 119 126 127 106 100 102 99 98 84 93
218 140 229 304 201 212 266 247 232 157 149 148 155 154 144 138 142 157 162 158 159 164 164 169 177 179 184 198 152 191 163 144 154 136 133 146 139 124 134 129 145 133 110 109 98 85 78 97 98
195 198 200 171 163 186 208 261 198 203 178 172 173 164 160 163 159 162 161 166 161 157 159 168 170 169 173 201 163 178 146 148 147 152 159 154 145 151 149 147 140 139 124 123 97 83 89 101 99
208 203 177 208 234 165 155 258 243 217 171 164 169 169 169 157 158 161 162 158 154 163 162 162 161 163 172 172 146 142 130 137 140 154 163 147 154 145 144 135 127 119 117 110 115 109 115 118 113